Member area
Imprimable
Bilzen, 18/05/2014, BEL - 3e Bilzen 111
List of reports > Triatlon 111 - Result
Search: Page: [1]
255 Entries
 
Complains are not accepted anymore. Results are final.
Category
PosNrNameAgeTeamTimePlaceName
1.6GOETSTOUWERS StennTEAM 1853:19:071m18
2.3VEKEMANS GlennTBB3:26:182m18
3.42DENIS SylvainTRIGT3:28:383m18
4.79PAREIT ChristopheEFCITC3:29:004m18
5.34DE MOOIJ JarydDTTA3:29:575m18
6.118VERLINDEN SvenBTT3:30:476m18
7.2VANDER MAST WouterTRINITY SPORTE3:31:257m18
8.115VERCALSTEREN KennAATT3:32:048m18
9.119VERMEIREN KrisFATTEAM3:32:269m18
10.126VOS DavyKTT3:34:1210m18
11.92SPIJKERMAN Erik - JanERIK JAN SPIJK3:34:3311m18
12.101VAN DE MOORTELE BruceMTTG3:34:3612m18
13.40DECOENE DavidLENTRIAC3:35:3213m18
14.86ROELENS StijnTRIBE3:35:4914m18
15.264VANDERBEKE KoenMTT3:36:231m40
16.75MOREEL WoutMC3TB3:36:2715m18
17.98UYTTERSPROT DieterFORNAXX TRIATHL3:36:5016m18
18.35DE RORE GeertETL3:38:2017m18
19.219NÜTTGENS RalfTEAM ERDINGER3:39:581m50
20.135XTEAM Francis3:39:581ex
21.204LASOEN FilipSMO SPECIALIZED3:40:532m40
22.237TAVEIRNE JeffreyMIDLON3:41:123m40
23.130DEBOER Oono3:42:1618m18
24.184GELDERS DimitriENDURANCE TEAM 3:42:534m40
25.153DAVE VanhoveETL3:43:335m40
26.83REMMERIE WouterKTDC3:44:2719m18
27.132DEMAN Kevin3:44:4020m18
28.155DE BENT JohanAATT3:44:576m40
29.179ERKENS PatrickETL3:45:072m50
30.134NR 134 3:45:141xxx
31.226ROMBOUTS EddySPTC3:45:487m40
32.149VAN DE WIELE Tom3:45:5621m18
33.12BARBIER DriesLENTRIAC3:46:0322m18
34.25CHRISTIAANS JoostTVA ARNHEM3:46:1323m18
35.43DENIS RomainATCC BH3:46:4124m18
36.165DE VOS GertMIDLON3:47:308m40
37.267VERBRUGGEN RonaldITM3:47:489m40
38.32DE JONGHE ThomasMTTG3:48:2725m18
39.120VERMEULEN MaartenTTM3:48:4626m18
40.221PETERS MaartenZVW '743:49:0610m40
41.133EYCKMANS Wim3:49:2827m18
42.68JOOSTEN NicoSOLID ENDURANCE3:49:3028m18
43.30DE CUYPER LeslieWE / 3COACH3:50:2429m18
44.250FVAN DER BURG KarlijnN.V.T3:50:321f18
45.67JACOBS LennertGEEN3:50:3830m18
46.128WILS GeertKTT3:51:0531m18
47.10BAERT JimmyEFCITC3:51:1732m18
48.58GHYSELINCK RubenMTTG3:51:2433m18
49.116VERHAEGEN MarkTV WEERT3:51:4734m18
50.91SPIESSENS ThomasN/A3:52:0035m18
51.109VANDEN EYNDE BirgenMTT3:52:0136m18
52.82POPPE JefLTC3:52:1737m18
53.169DECKERS Bart3:52:1811m40
54.268VERMEIREN FilipFATTEAM3:52:3712m40
55.71KINGS SimonTRITEAM MOUNTAI3:52:4138m18
56.185GHEYSENS Jan12BO43:53:0713m40
57.138BOGAERTS StijnFAT TEAM3:53:2614m40
58.252VAN HUMBEECK GuntherPATRIJOT3:53:5215m40
59.24CHATELUS SébastienFREE IRON TEAM3:53:5539m18
60.89SMEETS PeterSQUADRA TORNADO3:53:5540m18
61.207LENAERTS SvenBIR3:54:1716m40
62.15BOGAERT WimMTTG3:54:4941m18
63.47DEVOS WimMR T GENT3:54:4942m18
64.227ROOSEN DavidTDL3:55:0217m40
65.44DERUYCK BramEFCITC3:55:5643m18
66.70KEDZIA LaurentTDCH3:56:0144m18
67.102VAN DEN BERGH BramSPORTS PLANET3:56:0645m18
68.90SOLTANI KarimTDCH3:56:1546m18
69.229SCHEERDER JeroenATRIAC3:56:3718m40
70.11BAEYENS KurtGETC3:56:4947m18
71.215MOERMAN RudyMCCANN3TEAM BRU3:56:523m50
72.78OUTMANNS MartinILOVEORVAL3:57:2048m18
73.80PEETERMANS NickyRTT3:57:2149m18
74.216MOESKER RichardRICHARD MOESKER3:57:2219m40
75.122VERSCHAEREN TimKTT3:57:5550m18
76.123VERSCHAEREN HansKTT3:57:5551m18
77.260FVANDEN DAELEN LeenEFCITC3:57:562f18
78.62GOETHALS FrédéricH3O3:58:1452m18
79.21CAUWELIER WannesEFC ITC3:59:0353m18
80.247VAN DEN BERGHE BartSOLID ENDURANCE3:59:2920m40
81.45DESMET KoenIRON MANAGERS 23:59:5854m18
82.17BOUWENS StevenSP&O4:00:5355m18
83.20CASTERMANS ChristopheCAS4:01:3056m18
84.175DEMEESTERE Jean-PierreNO LIMIT TEAM4:02:214m50
85.192JACOBS GuyUTTC4:02:355m50
86.286COOL Gregory4:02:4857m18
87.163DE METS FrederikTTA4:03:2721m40
88.150CHRISTIAENS WimLENTRIAC4:03:4022m40
89.177DI FEBBO MarinoMTT4:03:5323m40
90.275VOSSWINKEL FrankTDL4:04:2024m40
91.174DEMAN PeterPATRIJOT4:04:2225m40
92.141BRAEM BenTTT4:04:2326m40
93.235SYRYN MarcBELGIUM4:04:5427m40
94.254VAN ONNA TonTEMA4TALENT ALL4:05:306m50
95.110VANDEPOELE BertMTTG4:05:3558m18
96.231SERVAIS VincentTHIMAX TEAM4:05:3728m40
97.124VERSTRAETEN IvanAATT4:05:4659m18
98.206FLEFÈVRE StefanieGEEN4:06:073f18
99.212MALMENDIER RolandTRIA TEAM EUPEN4:06:2929m40
100.213MARINUS WouterITM4:06:387m50
101.142BRUYNDONX WillemDB BOYS4:06:4830m40
102.27CLINCKSPOOR StijnTRIATLON WETTER4:07:0660m18
103.53ESCH Joris4:07:1261m18
104.13BEKAERT RubenLT4:07:2362m18
105.108VAN LOOVEREN KoenWéWé4:07:4663m18
106.203KRUIJER HesselOUDE VEER4:08:028m50
107.74MIEVIS StéphaneLDLV4:08:3464m18
108.33DE KEULENAER Hans12BO44:08:5065m18
109.8AELVOET StijnGEEN4:09:0366m18
110.113VANLANGENAKKER StéphaneTDCH4:09:1867m18
111.161DE LOMBAERT LucLENTRIAC4:09:469m50
112.223RASING PeterGO HUISSEN4:10:4610m50
113.63GRAULUS JeremyMIDLON4:10:5868m18
114.31DE DONDER RobATRIAC4:11:0469m18
115.225ROMAN Dieter3KANT TRIATHLON4:11:0631m40
116.157FDE BOECK GinaMCCANN3TEAM BRU4:11:454f18
117.18BRUGGEMAN PieterTTA4:12:1570m18
118.136FBÄUMER SilkeATRIAC4:13:075f18
119.127VRINTS JorisBIR4:13:1071m18
120.181FFERINGA Lena4:13:246f18
121.166DE VRIES Dennis4:13:5411m50
122.54GALLE AlexanderMTTG4:14:1672m18
123.81PIROSON ChristianTDCH4:15:0373m18
124.143BRUYNEEL StevenDB BOYS4:15:3932m40
125.72LALLEMAND PascalPOWER MAXX (PM4:15:4074m18
126.167DE VRIESE MarcTDW4:15:5312m50
127.59GIACOMELLI FabriceLENNES DT4:16:2675m18
128.211MAES StefaanKTDC4:17:3213m50
129.278WILMET BenoitESN4:17:4233m40
130.253VAN LINDEN JurgenWOMMELGEM ENDUR4:17:4834m40
131.239FTEMPELAERE TinekeEFCITC4:17:507f18
132.39DECLERCK JeroenVZN4:18:0676m18
133.182FFRANSSEN WhoopyTTR4:18:078f18
134.160DE JAEGER Hendrik4:18:3335m40
135.274VONNECHE DidierTRTS4:18:3736m40
136.61GOEMAERE GuntherPOWERMAXX4:18:3777m18
137.262VANDENEEDE DiederikMTT4:19:0637m40
138.129WYSGEER SteveMTT4:19:3178m18
139.255VAN PARIJS PeterTTA4:19:4238m40
140.29DE CLERCQ PieterEXCELLENT CYCLI4:19:4879m18
141.190HOUBEN GuyTCTS LUMMEN4:20:1739m40
142.188HERREMAN KarelNEEN4:20:1840m40
143.283FSLOOVE Karin4:20:319f18
144.245VAN DE STEEN Frank4:21:0414m50
145.242FTROOST YvonneAV TRIATHLON4:22:021f40
146.189HONSHOVEN PatrickH3O4:23:2441m40
147.198FJOOS Annick4:24:1510f18
148.172DEEN NorbertTRIATHLONCLUB M4:24:3542m40
149.251VAN HOUTEN CeesHELLAS TRIATHLO4:24:4415m50
150.217FMOMMERENCY LislotTBT4:25:0811f18
151.19CASSIERS Nikki4:25:5480m18
152.238TEIRBROOD EddySBT4:25:5816m50
153.95STRUYF StefanWTT20004:26:1081m18
154.281FTACK Laurence4:26:2912f18
155.209FLOOIJER JoanyETL4:27:5913f18
156.9AERTS ErikGEEN4:29:0982m18
157.232SEVERS ErikH3O4:29:0943m40
158.106VAN DER VEKEN Pierre4:29:2283m18
159.201FKIEBOOMS VeerleWOMMELGEM ENDUR4:29:362f40
160.224RASSCHAERT WalterTDW4:29:4717m50
161.196FJOLET FrançoiseTDCH4:30:1614f18
162.236FTANGHE HeleenEFCITC4:30:363f40
163.52ENKELS MaartenEASYNET4:31:3784m18
164.146PARADIS Jordy4:32:5985m18
165.156DE BEUL BartBART SOLO TRI T4:33:1044m40
166.121VERMOESEN PeterVELOX4:33:2386m18
167.234FSTROOMER MarleenNVT4:34:2415f18
168.271VIAENE Steven4:34:3645m40
169.263VANDEPITTE MarnixLENTRIAC4:34:5618m50
170.205LEA StephenSWL4:35:0446m40
171.168DEBOUT Jean-LucWOMMELGEM ENDUR4:35:0947m40
172.187GUBBELS JeroenJEROEN GUBBELS4:35:2348m40
173.199KARAMAT ALI JeroenHELLAS TRIATHLO4:35:4049m40
174.51EECKHAUT SebastienPTT4:35:4287m18
175.220PEERLINCK FrankWE4:36:1419m50
176.65HENDRIKSE JeffreyRTC DEN HAAG4:36:2888m18
177.93STEENHOUT RobrechtPR4:36:4489m18
178.279WOUTERS Wim4:37:2750m40
179.270VERSTREPEN PeterTRINITY TRIATHL4:37:5451m40
180.256FVAN TENDELOO Lutgard4:38:304f40
181.186FGIELEN MoniqueHETRIC4:39:521f50
182.259FVANDECAVEYE KatiaTRIATLON TEAM R4:41:0216f18
183.276VRANCKX PhilippeH304:41:0452m40
184.144CASSIERS Michel4:41:3220m50
185.272VLUGGEN RogerAMBY4:41:4653m40
186.261VANDENBORRE BrunoNON4:41:5121m50
187.7ADAN MathieuDE TOREN DIVAN4:42:1190m18
188.202KRIER MichelATCC4:42:2254m40
189.73LINDEMANS LukasTEAM BIDON4:42:4991m18
190.140FBOSSUYT MiekeNO LIMIT TEAM4:43:192f50
191.46DESSERS LeviNVT4:43:2892m18
192.112VANHOUCKE JeffreyNLT4:44:3293m18
193.55GALLE WardDVB4:45:2994m18
194.84RIEZ ChristopheSBT4:46:0795m18
195.48DEWEZ GermainBH BIKES BELGIU4:46:5096m18
196.38DE WOLF JanMSCT4:48:0097m18
197.266FVANDYCKE ElsBELGIUM4:48:085f40
198.233FSTEVENS Ilse4:48:266f40
199.248FVAN DEN BREMT Karen4:48:277f40
200.171DECOUX FabianATCC4:50:0555m40
201.151FCOULIER Nel12B044:50:5917f18
202.176DEVOS BartLENTRIAC4:51:4156m40
203.148CEULEMANS GeertCEULEMANS4:51:5857m40
204.280MARIEN Walter4:52:4522m50
205.170DECOCK WillemEFCITC4:54:5823m50
206.269VERSTRAETE PatrickH304:57:0258m40
207.277FWERBROUCK NancyEFCITC4:58:088f40
208.193FJACOBS IlseICH BIN SOLO4:58:239f40
209.195FJASPERS InaWORMSTRONG4:58:5010f40
210.285COSTALUGNA Serge4:58:5124m50
211.64HASAERS PeterGEEN5:02:0898m18
212.131DE SMEDT Tim5:02:1699m18
213.265VANDEVENNE KoenVDV5:04:4759m40
214.218NUEZ FranciscoSBT5:11:5260m40
215.16BOUTE EdwardBRONSGROEN ZOET5:12:17100m18
216.257VANBEECK Lydia5:13:4325m50
217.28DE BISSCHOP JanMSCT5:15:54101m18
DSQ284AERDEN Danekm40
DSQ145CASTRO JanETLm40
DSQ23CEULEMANS LievenGETCm18
DSQ164DE STAELEN SergeTRINITY TRIATHLm40
DSQ41DELRUE JonasMC3TBm18
DSQ49DHOOGE DavidTTTm18
DSQ50DIPÈDE DominiqueTCBMm18
DSQ57GEUENS JanLTm18
DSQ210FLUXEM XeniaTRINITYSPORT EVf18
DSQ4MARTENS BobTV STEINm18
DSQ76MULDER DannyJTTL/ETLm18
DSQ85ROBIN JulienBTCm18
DSQ87SERVAIS ThomasTHIMAX TEAMm18
DSQ88SIMONS RobETLm18
DSQ103VAN DEN BRANDEN BenoitNéANm18
DSQ117VERKUIJLEN LesleyLESLEYm18
DSQ125VIVIER MichaelENDURANCE TEAM m18
DSQ94STEYAERT KrisDVB3:26:28m18
DSQ287LALLEMAND Remy4:01:09m18
DSQ22CAVEZ BenjaminTRIGT4:05:53m18
DSQ154TUJUMI TUJUMI4:57:17em
DNF137BESSELING MichelAV TRIATHLONm40
DNF14BOELENS DavySMOSPECIALIZED m18
DNF162DE MAESENEER JosPATRIJOTm50
DNF173FDELIEVER VeerleSP&Of18
DNF178FELVEBAKKE Jorun AstridTEAM INCLUDIAf18
DNF1HEEMERIJCK PieterLTTLm18
DNF191HUNOT LionelCLUB ERDINGER m50
DNF208LENNES PierreTDCHm50
DNF214FMEIRE KathleenSMOSPECIALIZEDf18
DNF77NEYT KennethMC3TBm18
DNF228ROSSEELS GuyTRINITY TRIATHLm40
DNF230SERMON JorisPATRIJOTm40
DNF99VAN ACKER TomH3Om18
DNF107VAN HOECK JoeryMSCTm18
DNF258VANCUTSEM TomPATRIJOTm40
DNF111VANDONINCK FrederikFREDm18
DNF114VERBIEST Kristofm18
DNF: did not finish; DSQ: disqualified; Speed in km/h
Page: [1]